Theta_e
322 323 324 324 324 323 323 324 324 322 321 321 321 320 321 321 321 320 320 320 319 319 319 319 318 318 318 318 317 319 318 317 315 312 311 311 308 309 311 310 311 310 310 310 309 305 303 301 303 311 316 316 318 320 319 318 318 318 318 320 320 319 317
324 324 324 324 323 325 323 323 323 322 321 322 321 321 321 320 321 320 320 319 320 320 319 318 318 318 318 318 317 316 317 317 316 315 313 311 311 309 309 309 309 308 308 309 309 309 305 302 303 307 308 314 317 317 320 320 319 319 319 320 320 319 317
324 324 323 322 323 324 322 322 323 321 320 321 323 321 321 320 320 321 319 319 320 320 320 319 319 319 318 318 318 318 318 317 317 314 312 312 312 312 310 310 307 308 308 307 308 307 307 307 304 306 308 309 309 313 318 318 318 318 319 319 321 319 316
322 322 321 322 322 322 321 322 321 322 321 321 321 322 321 321 322 321 320 320 321 321 319 318 318 317 318 318 318 320 318 316 314 314 313 313 312 311 310 309 308 307 306 305 306 308 307 305 306 307 308 311 309 309 312 317 317 318 317 320 320 319 317
321 320 321 320 320 319 321 321 322 321 322 321 322 321 322 321 321 321 322 320 319 320 318 318 319 318 318 317 317 317 317 316 317 314 314 312 312 310 311 310 309 309 309 308 309 309 308 308 308 306 308 309 310 310 313 316 318 317 317 320 320 320 318
322 320 321 319 320 320 321 320 320 320 320 320 320 319 320 321 321 321 320 319 319 319 319 318 317 317 318 318 317 317 317 315 314 315 312 313 312 310 310 311 310 310 309 311 312 311 311 310 310 307 308 309 307 309 313 315 312 317 317 319 320 319 318
323 323 321 320 321 321 321 321 320 319 318 320 320 319 319 320 320 320 320 320 319 318 317 316 316 317 319 317 317 316 315 316 315 315 313 314 314 313 312 310 309 311 310 312 313 312 311 310 308 307 307 307 309 306 309 309 314 312 313 317 319 319 318
322 323 322 322 321 321 321 321 321 320 319 320 318 321 320 320 320 319 319 319 318 318 316 315 316 319 320 318 318 317 317 317 315 315 313 314 312 312 312 311 310 311 311 312 313 312 312 313 312 310 308 303 304 306 305 307 309 311 310 315 318 318 318
323 323 323 322 322 321 322 320 321 321 321 320 321 320 320 319 319 318 319 318 318 316 315 315 316 318 318 318 317 318 317 316 315 314 314 313 313 313 313 312 310 310 312 313 314 313 312 314 313 313 311 308 303 300 304 304 306 306 312 310 316 319 318
323 323 322 323 321 322 322 322 321 320 322 321 321 321 320 320 319 318 318 317 317 315 314 315 316 317 317 318 317 316 316 316 315 314 313 313 314 313 312 311 309 311 312 315 314 313 314 313 312 312 311 310 309 304 301 301 303 305 308 312 311 315 318
323 323 323 320 321 322 322 321 322 321 321 322 321 320 320 319 319 317 317 317 317 315 314 315 316 317 317 317 317 316 316 316 315 315 315 314 313 312 311 310 310 311 313 314 313 314 314 313 312 311 310 311 309 305 304 303 302 307 306 311 313 313 316
322 323 322 322 322 321 320 321 322 322 322 322 321 321 320 319 318 317 318 317 316 314 313 315 315 317 316 316 317 316 316 315 314 314 314 313 313 311 310 309 311 312 314 314 314 314 314 313 312 311 310 311 310 309 307 305 302 306 310 308 311 316 315
322 321 322 322 322 320 319 319 320 322 322 322 321 320 319 317 317 316 316 315 314 314 312 313 314 315 316 316 316 315 315 314 311 311 310 311 311 311 310 309 310 311 313 313 313 312 312 313 313 311 311 310 310 310 308 306 305 304 309 310 311 315 314
322 322 322 322 321 321 321 321 320 322 321 321 320 319 318 317 316 316 315 314 314 313 311 312 314 315 316 315 315 313 312 310 309 309 309 309 310 311 309 308 309 310 313 312 311 311 311 311 312 312 311 310 309 309 308 307 305 305 308 311 311 314 314
322 322 323 322 322 320 321 321 322 321 320 320 320 319 318 318 316 316 314 314 313 312 310 310 312 314 314 314 314 313 311 310 310 309 308 305 308 309 310 308 309 311 312 311 311 311 311 312 311 311 310 310 309 309 309 307 306 305 306 309 310 315 313
322 322 322 322 322 320 322 322 321 321 320 320 321 319 318 317 316 315 314 314 313 312 310 309 312 312 313 312 311 312 311 311 310 309 308 305 304 308 308 309 309 310 313 312 312 312 312 312 312 311 311 311 310 310 309 309 307 306 306 308 312 310 313
322 321 321 322 322 322 322 321 321 321 320 320 318 320 319 317 315 315 314 313 313 312 310 309 310 312 311 311 310 309 309 310 310 309 308 306 304 307 307 308 309 311 312 311 312 312 312 312 312 311 311 311 311 309 309 310 310 308 308 306 309 309 313
322 321 321 321 322 323 322 322 321 320 320 319 319 319 318 317 315 314 314 313 312 311 310 308 307 310 312 312 311 310 309 309 310 309 308 308 304 306 307 308 309 310 311 311 311 311 312 312 311 311 311 310 309 309 309 309 310 310 308 307 308 310 312
323 323 322 322 322 322 322 322 321 321 319 319 319 319 318 317 315 313 313 312 312 311 310 308 306 307 309 311 311 311 310 310 310 309 308 308 305 305 308 307 309 309 310 310 311 311 312 311 311 311 311 310 310 310 309 309 310 309 309 308 308 307 310
323 323 323 323 323 322 321 321 320 319 320 320 319 318 317 316 316 314 313 312 312 312 311 309 307 307 307 309 310 310 311 311 311 311 310 307 306 304 307 307 308 310 310 311 311 312 312 311 311 311 312 311 311 310 308 308 309 309 309 308 308 309 308
325 324 323 323 323 323 321 321 320 320 320 319 318 317 317 316 317 315 314 313 313 313 312 310 307 305 306 308 309 310 311 311 311 311 310 309 308 304 306 307 307 308 309 310 311 312 312 311 311 311 311 312 311 309 308 308 309 308 308 308 307 307 308
327 325 323 322 322 322 322 322 320 320 320 320 319 318 318 317 315 314 313 313 313 312 311 311 308 305 304 306 309 309 310 311 310 309 308 308 308 304 306 307 307 308 309 307 307 306 306 306 310 310 311 312 311 309 308 308 308 307 308 308 307 308 307
327 326 324 323 322 323 322 322 321 320 319 319 319 318 318 317 315 314 313 312 313 312 311 311 307 300 300 303 307 308 309 310 310 309 308 308 307 305 305 307 308 305 306 307 307 303 302 304 306 310 311 311 309 309 309 309 308 307 307 306 306 307 306
328 326 324 323 323 322 322 322 321 320 319 319 319 318 318 316 315 314 313 313 313 313 312 310 304 295 293 294 300 305 308 310 310 309 309 308 306 304 305 306 308 308 309 308 310 304 304 303 304 305 305 305 308 310 309 307 308 308 307 307 307 307 306
327 326 325 323 323 322 322 322 321 320 320 319 318 318 316 316 315 315 314 313 313 313 313 307 293 293 294 294 298 303 307 310 310 309 308 307 306 304 305 307 308 308 309 309 311 312 309 304 304 305 303 303 300 299 301 307 308 309 308 307 307 307 308
327 327 325 325 324 323 322 322 321 320 320 320 319 318 317 316 314 314 313 312 312 313 313 298 293 293 294 293 293 299 304 310 310 309 308 307 306 304 305 307 307 308 308 309 309 311 311 312 306 307 308 306 304 301 295 295 299 309 309 308 308 307 307
327 327 327 326 325 324 323 322 322 322 321 321 319 318 318 316 314 313 312 312 312 312 313 299 293 293 294 291 291 294 303 309 310 309 308 307 306 305 306 306 307 308 309 311 311 311 312 312 312 312 313 311 312 312 305 301 300 304 308 308 307 306 307
327 327 326 326 325 324 323 323 322 322 322 320 320 319 318 317 315 315 314 313 312 311 312 295 292 292 292 292 291 293 305 309 309 309 308 307 306 305 306 306 307 308 309 310 307 303 309 311 311 310 310 309 311 312 312 311 311 312 311 309 309 307 306
326 326 325 325 323 323 322 322 321 321 321 321 320 319 320 316 315 316 315 314 312 310 313 293 292 291 291 292 292 304 306 309 309 308 308 307 305 305 306 308 308 307 308 309 302 294 298 307 311 309 308 308 309 311 312 308 302 304 310 311 311 310 309
325 325 324 323 322 321 320 320 321 322 321 321 320 318 316 315 316 316 316 315 314 312 314 298 292 291 291 291 296 304 307 308 308 308 308 306 304 304 305 307 308 307 307 308 298 291 293 299 310 308 307 308 308 310 311 309 300 297 297 297 296 296 296
324 324 324 322 321 321 321 322 321 321 319 319 318 317 317 317 317 316 315 315 314 313 313 303 291 291 291 292 300 303 306 306 308 307 307 306 305 304 303 301 304 307 306 306 292 292 292 303 309 307 307 306 307 307 308 310 311 309 298 298 298 298 298
324 324 323 323 323 322 321 321 322 322 320 319 319 318 316 316 317 316 315 315 314 312 312 306 292 291 291 292 298 304 305 304 307 307 306 304 304 303 303 303 301 303 304 299 290 292 291 301 310 308 307 307 305 306 308 310 310 310 311 311 312 313 310
325 325 324 324 324 323 323 323 323 322 322 320 318 318 317 317 316 316 317 316 315 312 312 311 300 291 291 292 295 303 303 303 304 306 306 303 301 302 303 304 303 292 291 291 291 290 292 291 305 309 309 307 306 305 309 310 310 311 310 310 311 311 311
326 327 326 326 326 325 324 324 324 323 321 321 319 318 318 317 316 316 317 316 315 313 312 312 304 291 291 292 293 298 304 303 304 306 304 300 301 301 301 304 304 296 290 291 291 290 292 292 295 310 309 309 308 309 304 311 310 308 310 310 310 310 310
326 325 326 326 325 325 326 325 324 323 321 321 320 319 318 317 315 315 316 313 313 314 313 311 310 293 291 292 293 293 302 303 305 307 303 301 301 301 302 303 303 298 290 291 290 291 291 293 292 309 307 292 290 291 314 310 309 310 310 309 309 308 308
324 322 324 325 324 324 325 324 324 324 322 320 319 318 318 317 316 315 315 314 313 313 312 310 304 301 291 291 292 293 294 301 296 309 303 300 301 301 303 303 304 295 291 291 291 290 292 290 298 302 289 291 293 292 299 308 308 309 308 308 308 307 307
321 322 323 323 323 323 323 323 323 322 321 319 318 318 318 318 316 315 314 313 315 313 312 312 303 300 296 290 292 292 293 293 296 305 303 301 301 303 302 302 302 291 291 291 290 291 290 294 299 290 291 291 291 295 309 307 307 308 307 306 306 307 307
Wind_Speed
3 3 2 1 2 3 3 4 4 3 2 3 4 5 6 5 5 6 6 5 5 6 6 6 6 7 7 8 8 8 7 7 7 8 9 9 10 9 10 9 9 8 9 9 9 9 10 12 14 12 11 13 12 8 10 10 10 10 11 10 11 11 12
2 3 2 2 3 2 4 3 4 4 3 3 4 4 4 5 4 5 6 6 6 7 6 6 6 7 8 8 8 7 7 7 6 7 7 8 9 10 10 9 9 9 9 8 8 9 8 10 11 13 14 13 12 9 9 10 10 9 10 10 10 11 12
2 2 3 2 2 2 3 2 2 2 3 3 3 4 4 4 4 5 5 6 6 6 6 6 6 7 7 8 7 7 7 7 6 7 7 7 8 9 9 9 9 10 10 9 9 10 9 9 11 13 13 14 14 12 10 9 9 8 8 10 10 10 11
3 3 3 3 2 2 2 1 1 2 3 3 3 2 3 4 4 5 5 6 5 5 6 6 6 6 6 6 6 6 6 6 6 6 7 8 8 9 9 8 9 9 9 10 10 10 10 10 11 12 14 13 14 13 12 9 6 7 8 9 10 10 11
3 2 2 3 3 3 0 1 1 2 2 2 2 2 2 4 3 4 5 5 5 5 6 6 7 6 6 6 5 6 6 6 6 6 6 8 9 9 9 7 8 8 8 9 9 9 9 10 10 11 10 12 12 11 9 12 7 8 10 9 9 10 11
3 2 3 2 1 1 2 2 2 2 2 2 2 3 2 3 3 3 4 4 4 5 6 7 6 6 5 5 5 6 6 6 6 6 6 8 9 9 10 8 7 8 8 8 8 8 8 8 9 11 11 10 11 12 10 9 8 8 10 9 10 11 11
3 2 2 2 1 2 2 2 2 2 2 2 2 2 2 3 3 3 3 4 5 6 7 6 5 5 4 5 5 5 6 5 5 6 7 8 8 9 9 8 8 8 8 8 9 8 9 9 9 10 11 12 12 12 10 10 9 9 9 9 9 11 10
3 3 2 1 2 3 2 2 2 2 2 2 3 2 2 3 2 3 4 4 5 6 6 5 4 4 3 5 5 4 5 4 5 5 7 8 8 9 10 8 7 7 8 7 9 8 8 7 8 9 10 12 13 12 12 11 10 10 11 9 9 11 11
3 3 2 2 3 3 3 3 2 2 3 2 3 3 2 3 2 3 3 4 5 5 5 4 4 4 4 4 4 4 5 3 5 6 6 7 8 9 8 8 7 7 7 8 7 7 7 6 7 7 7 8 11 14 13 12 11 10 12 11 8 11 12
5 4 3 3 4 3 3 3 3 3 2 3 3 2 3 2 3 3 4 4 4 4 4 4 3 3 4 4 4 5 4 5 5 5 5 6 7 7 6 8 6 7 7 7 6 7 8 8 7 7 7 8 9 11 13 12 12 11 12 12 10 10 12
4 4 4 4 4 4 4 4 4 4 4 3 3 3 3 3 3 3 3 4 4 4 4 3 3 3 4 3 4 4 3 5 5 5 5 5 6 6 6 6 5 6 7 7 7 7 7 8 8 8 8 8 8 10 10 12 11 10 11 10 10 9 11
5 4 4 4 4 4 5 5 5 4 4 4 4 3 4 4 3 3 3 4 4 4 3 3 4 3 3 3 3 3 3 5 5 5 5 5 5 6 6 6 5 6 6 7 7 7 8 8 8 8 9 9 9 9 11 11 11 9 9 10 9 10 11
5 5 5 5 5 5 6 5 5 5 5 4 4 4 4 4 4 3 3 3 4 3 4 3 3 3 3 2 3 3 4 5 5 5 5 5 4 5 6 6 4 5 6 7 7 7 8 8 8 9 9 9 10 11 10 11 11 10 9 9 9 9 11
6 5 5 5 6 5 5 5 4 4 4 4 4 5 5 4 4 3 4 3 4 3 3 2 2 3 3 2 2 4 4 5 5 5 6 5 5 5 6 6 5 6 6 7 7 6 7 8 8 8 9 9 10 10 10 10 10 10 8 8 9 8 10
6 6 6 6 7 6 5 5 5 5 6 6 5 5 5 4 4 4 4 4 3 3 3 2 2 3 3 2 2 2 3 3 5 5 5 5 5 4 5 5 5 6 5 6 7 7 8 8 9 8 9 9 10 9 9 9 8 8 10 9 10 8 9
6 7 7 7 7 7 6 6 6 6 6 6 5 5 5 5 5 4 4 3 3 3 3 3 2 3 2 3 2 1 2 3 4 5 6 6 6 5 5 4 5 6 5 6 6 6 7 8 8 9 9 9 9 10 10 9 9 9 10 9 8 10 9
7 7 7 7 8 7 6 6 6 6 6 5 5 5 5 5 5 5 5 4 3 3 1 4 3 3 3 3 3 2 2 2 3 4 5 6 6 5 5 4 5 5 5 6 7 7 7 8 8 9 9 9 9 10 9 9 9 8 8 9 9 9 9
7 8 8 7 8 7 7 6 6 7 6 6 6 5 5 5 5 5 4 5 4 2 3 3 3 3 3 3 3 2 2 3 3 3 4 5 5 5 5 4 5 5 6 6 6 7 7 9 9 8 9 9 9 9 8 9 8 7 8 9 8 8 7
8 9 9 8 8 7 7 7 7 6 7 7 6 6 6 5 5 5 5 5 4 3 3 3 3 3 3 3 3 2 2 3 4 4 4 5 6 5 4 4 4 5 6 6 7 7 8 9 9 9 9 9 9 9 9 9 8 7 7 6 7 8 8
8 8 8 8 7 7 7 7 7 7 7 7 7 7 6 6 5 5 5 4 4 4 3 4 3 3 4 4 4 3 3 3 3 3 4 4 5 4 4 4 4 5 5 6 7 8 8 8 8 9 9 9 10 10 9 9 9 8 7 7 7 8 8
8 8 7 7 7 7 7 7 7 7 7 7 7 7 7 6 6 5 6 5 4 3 4 4 3 3 4 3 4 4 4 4 4 4 3 4 4 4 3 3 4 5 5 6 7 7 8 8 8 8 9 9 10 10 8 7 7 7 7 7 8 8 8
7 8 8 8 8 8 8 8 7 7 7 7 6 7 7 7 7 7 6 6 6 4 4 3 2 2 4 4 4 5 4 4 4 4 4 4 4 4 2 2 3 5 5 5 5 5 6 6 6 8 8 9 10 10 9 7 7 7 7 6 6 7 7
7 8 8 9 9 8 8 8 8 8 8 8 8 8 8 7 7 7 8 7 6 5 4 3 4 2 4 4 5 3 4 4 3 4 4 4 4 4 3 2 1 2 5 5 2 2 3 6 6 6 6 8 9 9 10 9 8 7 6 7 7 6 7
8 9 8 8 8 9 9 8 8 9 9 9 9 8 8 8 8 7 8 7 6 5 5 3 9 5 4 3 5 6 5 4 2 4 3 3 4 4 3 2 2 2 3 3 5 8 2 2 3 3 5 7 7 8 10 9 8 8 8 7 6 7 7
8 8 8 9 9 9 9 9 9 9 9 9 9 8 8 8 7 7 7 7 7 6 6 8 9 6 4 5 5 5 5 4 3 3 2 4 3 3 3 2 2 2 2 4 5 5 8 4 2 2 1 2 2 3 4 7 9 9 10 8 8 8 7
8 8 9 9 9 9 10 10 10 10 10 9 8 9 9 7 8 8 8 8 8 7 5 11 9 8 6 6 5 6 5 4 4 3 2 2 3 3 3 3 1 3 2 2 5 3 1 7 6 6 6 7 6 4 3 1 4 7 7 8 7 8 8
9 9 9 9 10 10 11 11 11 10 9 9 10 10 9 8 9 9 9 9 8 7 6 11 10 9 7 6 5 5 6 5 4 3 2 2 2 2 2 3 3 1 2 2 5 6 3 2 3 5 5 2 5 5 3 5 4 1 7 7 8 8 8
8 8 8 9 9 10 11 11 11 10 9 10 10 10 9 9 10 11 11 9 8 7 4 11 10 9 7 6 6 7 6 5 4 3 3 1 1 1 2 2 2 2 2 3 6 7 7 3 2 2 3 3 4 6 7 8 9 8 7 6 6 6 6
7 7 8 9 9 9 10 11 10 9 9 8 7 7 7 9 10 10 11 10 9 8 5 12 10 10 8 7 7 6 6 5 5 4 3 2 2 1 1 2 2 1 1 3 7 9 7 7 4 2 3 4 4 5 7 5 6 8 7 7 7 7 7
7 7 8 8 9 10 10 11 10 9 10 9 8 8 9 10 10 10 11 10 10 8 6 10 11 10 8 8 6 6 5 5 5 5 4 3 3 2 1 2 3 2 1 4 7 9 11 10 6 2 2 2 4 5 5 6 5 8 8 5 3 2 3
7 7 7 9 9 9 9 8 8 7 9 8 8 8 9 9 9 10 10 10 10 8 7 9 12 10 10 10 7 6 5 6 5 5 4 4 3 3 4 3 6 3 1 5 6 9 11 10 4 2 1 3 5 4 5 4 5 4 6 7 6 5 5
7 8 8 9 8 9 9 9 8 7 8 8 9 9 10 10 9 8 9 10 10 10 8 9 13 12 11 10 8 6 6 6 6 5 5 5 4 3 5 4 2 5 4 5 5 7 10 10 5 2 1 1 3 4 5 5 4 4 3 4 4 3 4
7 8 9 9 8 8 8 8 8 8 8 8 8 8 8 8 8 9 7 8 7 10 9 8 11 13 12 11 11 7 6 6 6 6 5 5 5 4 5 5 5 3 2 3 3 5 8 8 8 1 2 2 3 4 2 5 6 4 3 4 5 6 6
8 8 8 8 8 8 7 7 7 7 8 7 7 7 8 8 8 8 9 8 7 9 9 9 10 15 12 12 12 9 6 7 6 6 6 5 5 5 5 5 5 5 0 2 2 3 5 8 8 6 3 5 5 4 8 1 5 1 3 3 5 5 5
8 8 7 7 8 8 8 7 7 7 7 7 8 9 8 9 11 11 9 10 10 9 9 11 8 13 13 13 12 13 7 7 6 6 5 5 5 5 4 4 5 6 3 1 3 3 5 6 10 5 6 5 6 7 6 3 3 2 2 3 4 4 4
8 7 8 8 9 9 8 8 7 7 8 9 9 9 9 10 10 10 10 8 8 9 8 8 10 10 13 13 13 13 13 8 2 3 5 5 5 5 4 4 6 8 5 2 0 2 4 7 9 4 3 5 6 9 8 2 3 1 3 3 3 4 4
8 8 9 9 9 9 9 9 8 8 8 8 8 8 8 8 9 10 10 10 8 8 8 8 10 11 11 14 12 13 13 10 4 5 4 5 5 4 5 4 5 9 7 5 3 1 3 5 4 4 4 4 8 8 6 2 3 3 2 4 3 4 4
Wind_Direction
272 301 319 281 269 272 277 290 311 302 301 335 329 325 343 327 338 329 329 338 335 338 337 332 338 340 339 344 349 343 345 348 350 351 346 353 350 348 351 343 340 336 339 330 329 324 315 316 319 322 328 335 334 345 344 344 350 347 348 345 350 352 356
282 281 278 280 291 286 285 297 301 319 320 338 330 332 325 329 319 333 330 332 345 335 340 330 339 339 336 339 342 345 351 347 353 346 348 350 347 350 343 347 341 343 338 342 332 332 323 317 312 320 326 330 330 349 347 346 346 344 352 349 348 357 357
265 263 283 294 272 265 267 273 305 300 336 313 337 329 325 315 341 331 330 344 334 350 332 335 327 328 335 336 340 344 343 344 349 351 350 349 346 348 347 343 343 343 343 343 344 341 333 319 315 322 331 336 337 340 333 343 340 341 354 355 349 0 1
271 272 277 272 256 242 276 294 287 335 314 327 318 319 315 329 352 332 342 336 346 344 335 331 330 329 330 332 336 338 340 346 350 345 344 349 351 346 353 345 344 346 342 340 338 338 329 321 323 328 331 337 331 323 339 331 340 345 356 2 355 2 3
291 275 274 295 311 309 293 261 286 272 302 315 305 302 323 344 338 338 339 337 346 341 333 332 327 325 325 325 336 339 345 342 346 345 343 352 348 346 352 346 341 339 342 342 334 327 324 328 326 327 335 332 330 332 325 316 352 354 357 8 6 1 6
264 287 285 272 282 285 306 294 280 294 301 305 318 311 347 339 333 338 340 336 335 332 329 327 327 323 321 317 337 341 339 343 351 343 342 346 345 348 346 345 335 340 345 341 331 325 325 329 335 336 343 339 330 328 323 313 353 353 6 5 13 5 6
222 230 255 271 249 254 254 262 286 299 303 282 286 308 336 330 339 336 330 327 327 330 330 327 324 318 319 316 330 342 340 348 341 338 341 342 338 346 342 343 339 335 349 339 334 331 339 340 343 343 339 339 334 334 336 343 353 353 3 11 10 12 6
233 222 239 254 266 250 232 242 254 272 278 302 313 320 315 303 313 319 328 322 332 332 331 327 322 309 320 315 330 339 329 349 334 337 336 338 336 342 342 344 331 336 346 341 339 342 348 339 338 338 340 335 341 340 340 346 347 13 358 5 13 14 6
240 252 253 236 231 234 242 247 231 234 260 289 284 291 294 303 319 315 314 329 332 334 331 325 319 320 331 314 321 334 328 356 327 333 334 337 339 340 338 343 330 342 348 349 344 348 349 346 341 336 333 330 339 344 345 341 349 1 6 5 11 22 8
216 228 240 239 245 226 241 245 257 262 288 272 279 270 286 279 296 318 314 325 336 333 327 320 311 308 313 309 328 324 331 335 322 326 332 334 336 336 341 341 336 339 352 347 347 352 353 352 356 354 359 343 338 338 344 340 349 352 2 12 1 12 9
230 223 227 243 232 225 222 235 239 237 236 238 254 271 268 271 274 269 301 322 334 331 322 317 314 306 306 307 328 315 343 322 316 324 331 335 337 336 342 339 339 346 351 348 353 355 1 356 353 358 358 356 355 348 344 339 339 0 354 8 13 6 10
222 229 232 237 250 249 244 235 231 237 249 245 250 248 253 259 267 281 293 314 329 331 323 317 310 304 314 311 323 319 340 329 322 323 336 336 339 339 341 339 341 347 351 349 357 2 5 360 357 358 360 358 356 356 353 344 339 1 5 359 10 18 16
218 220 224 230 236 241 249 246 237 231 237 249 248 249 258 262 268 280 290 311 315 326 325 319 313 310 298 317 324 335 341 327 332 335 339 342 339 340 340 336 346 347 352 343 359 360 2 360 357 359 2 359 359 1 2 349 344 346 1 356 5 18 25
223 224 227 228 238 248 250 258 255 246 241 240 246 242 250 252 253 264 279 288 314 320 319 302 306 294 280 296 332 341 340 339 342 354 343 344 347 345 343 335 341 350 351 343 351 351 359 360 357 360 1 359 3 0 5 350 343 338 358 7 18 21 25
218 223 224 229 235 239 236 235 239 239 248 247 235 247 253 241 247 249 270 290 291 306 300 292 277 276 284 295 302 353 334 343 353 358 351 349 349 356 340 339 351 345 339 343 343 344 359 355 356 359 3 357 5 357 5 357 340 335 348 11 15 26 24
218 222 226 233 236 240 238 238 237 239 242 238 230 240 244 240 240 250 256 260 290 304 308 309 276 267 278 292 311 359 323 346 347 352 357 356 355 349 347 340 351 355 340 338 344 349 357 354 352 1 2 360 0 2 0 9 355 349 354 10 16 16 20
221 222 227 232 239 241 244 241 238 241 244 242 239 226 240 242 239 245 259 267 270 278 298 275 267 269 285 307 293 316 328 334 345 350 356 355 355 346 351 341 354 350 341 343 349 353 0 352 353 3 4 357 1 2 3 7 6 359 355 3 17 18 15
222 225 229 237 239 239 241 243 244 243 240 241 243 239 231 236 248 254 254 264 266 281 296 282 282 261 236 242 278 299 303 330 324 340 350 348 348 345 347 345 346 351 348 347 355 350 358 356 356 3 5 359 3 2 5 10 0 358 8 12 5 16 20
224 227 230 233 238 243 244 244 243 239 245 246 240 237 243 238 232 246 244 247 266 281 284 285 278 279 280 266 268 285 285 292 317 330 343 337 350 344 338 341 341 344 351 355 355 352 354 356 358 2 7 3 4 4 7 5 2 357 14 20 11 6 19
222 228 229 233 235 238 241 242 243 244 241 241 243 239 238 239 229 245 259 256 257 265 290 299 287 261 262 255 259 273 274 278 288 310 318 332 341 340 334 346 338 335 346 357 356 351 356 359 359 360 8 8 2 5 9 3 0 7 9 10 23 22 24
221 225 230 231 233 237 242 239 238 244 245 243 242 244 245 239 239 233 243 243 251 258 266 262 269 266 259 266 269 263 267 278 291 297 302 315 334 331 336 339 346 347 352 354 355 351 351 350 346 3 9 7 4 6 8 5 6 6 16 23 24 18 22
222 224 226 231 232 233 236 241 241 238 237 240 241 245 244 240 238 240 236 227 236 230 247 259 250 285 281 265 250 261 274 287 297 299 314 319 330 329 332 358 2 356 355 334 347 357 352 335 332 356 9 9 6 4 3 11 20 13 22 27 33 29 26
218 222 225 229 231 233 235 237 238 239 239 238 237 233 236 234 233 236 240 230 231 232 229 239 114 84 319 301 291 280 265 269 279 305 310 318 326 332 325 331 31 331 296 288 280 30 317 315 339 345 4 13 10 9 5 13 23 25 22 34 35 24 34
221 224 226 229 232 233 234 234 236 239 238 237 237 235 232 233 233 239 240 237 231 230 231 201 130 159 182 255 272 268 271 264 277 291 289 311 320 329 319 340 335 215 259 255 187 170 206 251 332 2 28 29 21 22 19 10 20 33 32 35 29 32 39
231 233 231 231 231 233 233 233 235 234 234 233 231 230 226 230 239 243 242 244 241 235 240 125 148 164 197 204 245 269 268 262 248 252 290 309 317 333 319 320 325 310 38 1 323 166 171 149 144 118 106 175 127 59 28 29 6 21 23 22 25 29 26
244 241 236 236 233 232 231 232 233 231 231 229 227 224 226 223 230 235 236 236 242 239 240 138 162 171 191 214 216 249 251 258 252 236 261 288 325 331 324 311 316 327 55 259 259 3 49 143 149 192 178 165 168 147 119 158 340 26 19 32 28 38 26
246 244 241 236 233 233 232 232 231 229 228 224 223 224 220 210 227 226 228 226 230 235 240 146 169 174 184 207 211 234 252 242 239 238 236 292 319 327 317 314 318 342 6 26 20 342 346 34 136 186 195 200 51 134 146 102 174 156 54 34 29 30 16
256 257 253 247 242 241 240 239 234 228 225 225 221 219 217 215 220 221 224 220 225 223 207 149 171 175 179 195 202 233 243 224 220 207 206 209 279 299 298 299 306 333 354 39 27 345 327 344 55 54 38 51 62 52 49 35 28 25 37 43 46 46 32
265 260 259 257 251 251 256 251 245 244 236 229 225 217 208 230 227 222 220 215 219 222 169 161 171 177 172 189 197 230 225 217 209 201 190 190 222 193 264 285 284 312 350 44 30 344 327 313 316 53 50 42 35 69 76 69 80 63 45 40 48 55 59
268 265 261 256 251 246 243 247 239 231 232 220 215 206 221 227 226 227 219 213 210 214 199 172 176 175 175 182 199 234 212 219 204 195 190 178 185 169 208 331 314 320 5 54 22 337 328 324 299 48 45 54 50 38 80 121 144 135 125 117 124 131 96
282 277 267 260 259 255 252 250 245 232 225 214 209 215 234 230 230 230 226 215 205 202 212 169 177 176 178 185 205 232 213 217 203 197 178 185 180 155 94 47 321 314 10 45 13 337 329 318 287 72 16 26 48 50 54 93 145 144 167 153 142 129 111
292 287 281 276 269 265 259 255 250 230 228 229 229 219 231 239 234 229 224 219 186 196 210 173 175 177 186 187 203 228 224 215 202 202 191 171 176 172 145 159 47 350 14 37 1 337 332 331 316 97 312 92 61 60 56 28 27 69 100 111 120 154 122
290 288 287 285 279 273 269 266 255 247 245 242 237 230 227 230 220 232 224 213 192 197 208 186 170 179 183 185 203 229 219 219 212 197 205 172 165 187 176 161 152 146 338 41 359 346 331 337 326 326 308 61 49 60 12 73 39 28 75 80 93 93 84
308 298 291 287 288 283 277 272 267 257 254 248 244 244 233 231 230 222 219 201 202 199 202 198 168 177 181 185 198 220 225 219 215 199 194 180 183 177 189 182 142 125 249 41 21 347 329 325 323 301 50 35 30 348 303 5 110 278 76 97 96 95 89
319 305 298 300 297 291 289 282 273 266 259 253 248 246 238 241 248 244 221 182 206 203 188 193 172 176 179 186 193 206 231 218 226 201 196 183 183 188 186 162 148 139 156 52 24 354 320 317 317 320 40 360 325 301 288 4 55 92 99 79 76 71 71
322 323 324 316 305 299 298 293 283 274 281 279 266 256 260 259 253 244 237 222 202 199 186 187 179 170 182 184 190 204 225 254 86 264 191 185 189 180 180 140 125 134 149 168 79 6 354 319 264 51 1 313 284 286 285 288 46 61 91 92 85 78 60
338 328 330 326 315 308 305 302 298 292 294 288 283 271 266 265 254 250 248 243 217 197 187 184 175 174 171 186 188 202 214 240 236 208 192 188 196 183 172 164 134 146 156 160 188 167 64 5 21 23 301 289 271 266 262 145 110 99 143 116 113 95 82